EW1268 Weather Reports


Display with metric or nautical units.
time (UTC)temp
F
wind
direction
speed
MPH
gust
MPH
rain 1hr
in
rain 24hr
in
rain mn
in
humidity
%
barometer
mb
20260902134016 80 309 1.0 7.0 0.00 0.00 0.00 93 1015.3
20260902133518 80 243 1.0 7.0 0.00 0.00 0.00 93 1015.2
20260902133031 80 238 1.0 5.0 0.00 0.00 0.00 93 1015.2
20260902132516 80 211 2.0 5.0 0.00 0.00 0.00 94 1015.2
20260902132008 80 275 1.0 5.0 0.00 0.00 0.00 94 1015.1
20260902131530 80 126 0.0 5.0 0.00 0.00 0.00 94 1015.0
20260902131013 80 157 1.0 4.0 0.00 0.00 0.00 94 1014.9
20260902130515 79 247 1.0 4.0 0.00 0.00 0.00 94 1014.9
20260902130028 79 221 1.0 4.0 0.00 0.00 0.00 94 1014.8
20260902125516 79 178 0.0 5.0 0.00 0.00 0.00 94 1014.8
20260902125017 79 205 1.0 5.0 0.00 0.00 0.00 94 1014.7
20260902124509 79 282 1.0 6.0 0.00 0.00 0.00 94 1014.6
20260902124009 79 224 1.0 6.0 0.00 0.00 0.00 94 1014.5
20260902123509 79 309 1.0 4.0 0.00 0.00 0.00 94 1014.3
20260902123018 79 249 1.0 4.0 0.00 0.00 0.00 94 1014.2
20260902122514 79 51 1.0 5.0 0.00 0.00 0.00 94 1014.1
20260902122012 79 360 1.0 5.0 0.00 0.00 0.00 94 1013.9
20260902121530 79 163 1.0 5.0 0.00 0.00 0.00 94 1013.8
20260902121014 79 247 1.0 6.0 0.00 0.00 0.00 94 1013.9
20260902120508 79 175 1.0 6.0 0.00 0.00 0.00 93 1013.9
20260902120014 79 143 1.0 4.0 0.00 0.00 0.00 93 1013.9
20260902115512 79 153 1.0 4.0 0.00 0.00 0.00 93 1014.0
20260902115020 79 309 0.0 3.0 0.00 0.00 0.00 93 1014.0
20260902114527 79 234 1.0 4.0 0.00 0.00 0.00 93 1014.0
20260902114020 79 282 1.0 4.0 0.00 0.00 0.00 93 1014.0
20260902113514 79 178 1.0 4.0 0.00 0.00 0.00 93 1014.1
20260902113031 79 232 1.0 4.0 0.00 0.00 0.00 93 1014.0
20260902112508 79 119 0.0 4.0 0.00 0.00 0.00 93 1014.0
20260902112009 79 178 1.0 3.0 0.00 0.00 0.00 93 1014.0
20260902111523 79 178 0.0 3.0 0.00 0.00 0.00 93 1013.9
20260902111012 79 107 1.0 2.0 0.00 0.00 0.00 93 1013.9
20260902110515 79 309 0.0 3.0 0.00 0.00 0.00 93 1013.9
20260902110029 79 309 1.0 3.0 0.00 0.00 0.00 93 1013.9
20260902105516 79 51 0.0 3.0 0.00 0.00 0.00 93 1013.9
20260902105020 79 265 1.0 3.0 0.00 0.00 0.00 92 1014.0
20260902104517 79 309 1.0 3.0 0.00 0.00 0.00 92 1014.0
20260902104010 79 309 0.0 2.0 0.00 0.00 0.00 92 1014.0
20260902103511 79 238 0.0 2.0 0.00 0.00 0.00 92 1013.9
20260902103036 79 178 0.0 4.0 0.00 0.00 0.00 92 1013.9
20260902102514 79 291 0.0 4.0 0.00 0.00 0.00 92 1013.8
20260902102017 79 51 1.0 3.0 0.00 0.00 0.00 92 1013.8
20260902101507 79 291 0.0 4.0 0.00 0.00 0.00 92 1013.8
20260902101004 79 93 1.0 5.0 0.00 0.00 0.00 92 1013.7
20260902100506 79 265 2.0 5.0 0.00 0.00 0.00 92 1013.7
20260902100017 79 22 1.0 5.0 0.00 0.00 0.00 92 1013.7
20260902095513 79 153 1.0 6.0 0.00 0.00 0.00 91 1013.6
20260902095014 79 9 1.0 6.0 0.00 0.00 0.00 91 1013.7
20260902094529 79 291 1.0 4.0 0.00 0.00 0.00 91 1013.8
20260902094016 80 238 1.0 4.0 0.00 0.00 0.00 91 1013.9
20260902093504 80 161 1.0 4.0 0.00 0.00 0.00 91 1013.8
20260902093010 80 126 0.0 4.0 0.00 0.00 0.00 91 1013.9
20260902092512 80 273 1.0 4.0 0.00 0.00 0.00 91 1013.9
20260902092008 80 282 1.0 4.0 0.00 0.00 0.00 91 1013.9
20260902091554 80 286 1.0 6.0 0.00 0.00 0.00 90 1013.8
20260902091014 80 51 1.0 6.0 0.00 0.00 0.00 90 1013.8
20260902090514 80 243 1.0 4.0 0.00 0.00 0.00 90 1013.7
20260902090030 80 221 1.0 7.0 0.00 0.00 0.00 90 1013.7
20260902085506 80 178 1.0 7.0 0.00 0.00 0.00 90 1013.6
20260902085007 80 244 2.0 6.0 0.00 0.00 0.00 90 1013.7
20260902084513 80 250 2.0 5.0 0.00 0.00 0.00 90 1013.7
20260902084010 80 211 0.0 7.0 0.00 0.00 0.00 90 1013.7
20260902083510 80 157 2.0 7.0 0.00 0.00 0.00 90 1013.8
20260902083026 80 178 1.0 5.0 0.00 0.00 0.00 90 1013.8
20260902082516 80 265 1.0 6.0 0.00 0.00 0.00 89 1013.8
20260902082017 80 265 2.0 6.0 0.00 0.00 0.00 89 1013.7
20260902081509 80 234 1.0 5.0 0.00 0.00 0.00 89 1013.6
20260902081008 80 237 1.0 6.0 0.00 0.00 0.00 89 1013.7
20260902080510 80 329 1.0 6.0 0.00 0.00 0.00 89 1013.6
20260902080019 81 286 1.0 5.0 0.00 0.00 0.00 89 1013.6
20260902075512 81 202 1.0 9.0 0.00 0.00 0.00 89 1013.8
20260902075016 81 205 1.0 9.0 0.00 0.00 0.00 89 1013.8
20260902074530 81 193 2.0 8.0 0.00 0.00 0.00 89 1013.8
20260902074019 81 238 2.0 8.0 0.00 0.00 0.00 88 1013.8
20260902073511 81 221 2.0 5.0 0.00 0.00 0.00 88 1013.7
20260902073013 81 178 1.0 4.0 0.00 0.00 0.00 88 1013.8
20260902072510 81 205 1.0 5.0 0.00 0.00 0.00 88 1013.9
20260902072012 81 93 1.0 7.0 0.00 0.00 0.00 88 1013.9
20260902071547 81 309 1.0 7.0 0.00 0.00 0.00 88 1013.9
20260902071019 81 259 2.0 6.0 0.00 0.00 0.00 88 1013.9
20260902070517 81 309 1.0 5.0 0.00 0.00 0.00 87 1013.9
20260902070032 81 236 2.0 5.0 0.00 0.00 0.00 87 1013.9
20260902065509 81 265 0.0 4.0 0.00 0.00 0.00 87 1013.9
20260902065008 81 280 1.0 5.0 0.00 0.00 0.00 87 1013.8
20260902064516 81 200 1.0 5.0 0.00 0.00 0.00 87 1013.8
20260902064009 81 196 1.0 4.0 0.00 0.00 0.00 87 1013.8
20260902063511 81 252 1.0 4.0 0.00 0.00 0.00 87 1013.8
20260902063028 81 205 1.0 4.0 0.00 0.00 0.00 87 1013.8
20260902062520 80 205 1.0 4.0 0.00 0.00 0.00 87 1013.6
20260902062014 80 196 1.0 3.0 0.00 0.00 0.00 87 1013.6
20260902061512 80 279 1.0 4.0 0.00 0.00 0.00 87 1013.6
20260902061008 80 196 1.0 4.0 0.00 0.00 0.00 87 1013.7
20260902060508 80 238 0.0 3.0 0.00 0.00 0.00 87 1013.7
20260902060030 79 153 0.0 3.0 0.00 0.00 0.00 87 1013.7
20260902055514 79 93 0.0 3.0 0.00 0.00 0.00 87 1013.7
20260902055014 79 216 0.0 2.0 0.00 0.00 0.00 87 1013.7
20260902054535 79 51 0.0 1.0 0.00 0.00 0.00 87 1013.9
20260902054017 79 178 0.0 1.0 0.00 0.00 0.00 87 1014.1
20260902053512 79 9 0.0 1.0 0.00 0.00 0.00 87 1014.0
20260902053019 79 9 0.0 2.0 0.00 0.00 0.00 87 1013.9
20260902052510 79 153 0.0 2.0 0.00 0.00 0.00 87 1013.9
20260902052012 79 265 0.0 2.0 0.00 0.00 0.00 87 1013.9
20260902051526 79 51 0.0 2.0 0.00 0.00 0.00 88 1013.9
20260902051015 79 51 0.0 2.0 0.00 0.00 0.00 88 1013.9
20260902050518 79 178 0.0 2.0 0.00 0.00 0.00 87 1013.9
20260902050042 79 119 0.0 2.0 0.00 0.00 0.00 87 1014.1
20260902045507 79 93 0.0 2.0 0.00 0.00 0.00 88 1014.1
20260902045010 79 137 0.0 2.0 0.00 0.00 0.00 88 1014.0
20260902044518 79 67 0.0 2.0 0.00 0.00 0.00 88 1013.9
20260902044010 79 58 1.0 2.0 0.00 0.00 0.00 88 1013.9
20260902043517 79 67 0.0 1.0 0.00 0.00 0.00 88 1013.9
20260902043029 79 51 0.0 1.0 0.00 0.00 0.00 87 1013.9
20260902042520 79 9 0.0 1.0 0.00 0.00 0.00 87 1013.9
20260902042022 80 265 0.0 1.0 0.00 0.00 0.00 87 1014.0
20260902041508 80 51 0.0 1.0 0.00 0.00 0.00 87 1014.1
20260902041009 80 34 0.0 2.0 0.00 0.00 0.00 87 1014.1
20260902040510 80 51 0.0 2.0 0.00 0.00 0.00 87 1014.2
20260902040021 80 51 0.0 1.0 0.00 0.00 0.00 87 1014.1
20260902035514 80 9 0.0 1.0 0.00 0.00 0.00 87 1014.2
20260902035014 80 51 0.0 2.0 0.00 0.00 0.00 87 1014.2
20260902034530 80 44 1.0 2.0 0.00 0.00 0.00 87 1014.2
20260902034022 80 72 1.0 2.0 0.00 0.00 0.00 86 1014.2
20260902033509 80 51 0.0 2.0 0.00 0.00 0.00 87 1014.1
20260902033014 80 205 0.0 2.0 0.00 0.00 0.00 86 1014.2
20260902032512 80 153 0.0 1.0 0.00 0.00 0.00 86 1014.1
20260902032015 80 93 0.0 1.0 0.00 0.00 0.00 86 1014.1
20260902031532 80 34 0.0 1.0 0.00 0.00 0.00 86 1014.1
20260902031017 80 178 0.0 1.0 0.00 0.00 0.00 86 1014.0
20260902030519 81 221 0.0 1.0 0.00 0.00 0.00 86 1013.8
20260902030032 81 34 0.0 1.0 0.00 0.00 0.00 86 1013.7
20260902025509 81 93 0.0 2.0 0.00 0.00 0.00 86 1013.6
20260902025008 81 93 0.0 2.0 0.00 0.00 0.00 86 1013.6
20260902024518 81 76 0.0 1.0 0.00 0.00 0.00 85 1013.6
20260902024015 81 41 0.0 2.0 0.00 0.00 0.00 85 1013.5
20260902023516 82 51 0.0 2.0 0.00 0.00 0.00 84 1013.5
20260902023031 82 34 0.0 1.0 0.00 0.00 0.00 84 1013.4
20260902022519 82 93 0.0 1.0 0.00 0.00 0.00 83 1013.4
20260902022018 82 9 0.0 2.0 0.00 0.00 0.00 83 1013.4
20260902021533 82 325 0.0 2.0 0.00 0.00 0.00 84 1013.3
20260902021011 82 9 0.0 1.0 0.00 0.00 0.00 83 1013.2
20260902020512 83 67 0.0 2.0 0.00 0.00 0.00 82 1013.2
20260902020024 83 61 0.0 2.0 0.00 0.00 0.00 81 1013.0
20260902015514 83 265 0.0 2.0 0.00 0.00 0.00 81 1013.0
20260902015017 83 34 0.0 2.0 0.00 0.00 0.00 80 1012.9
20260902014539 83 34 0.0 1.0 0.00 0.00 0.00 80 1012.8
20260902014019 84 34 0.0 1.0 0.00 0.00 0.00 79 1012.7
20260902013518 84 67 0.0 1.0 0.00 0.00 0.00 79 1012.6
20260902013018 84 93 0.0 2.0 0.00 0.00 0.00 79 1012.4
20260902012510 84 51 0.0 2.0 0.00 0.00 0.00 79 1012.4
20260902012011 85 51 0.0 2.0 0.00 0.00 0.00 78 1012.4
20260902011529 85 93 0.0 2.0 0.00 0.00 0.00 78 1012.4
20260902011018 85 76 0.0 2.0 0.00 0.00 0.00 78 1012.5
20260902010518 85 93 0.0 2.0 0.00 0.00 0.00 77 1012.6
20260902005516 85 221 0.0 2.0 0.00 0.00 0.00 77 1012.7
20260902005010 85 51 0.0 2.0 0.00 0.00 0.00 77 1012.8
20260902004520 86 51 0.0 2.0 0.00 0.00 0.00 77 1012.9
20260902004016 86 51 0.0 1.0 0.00 0.00 0.00 76 1012.9
20260902003516 86 111 0.0 3.0 0.00 0.00 0.00 76 1012.7
20260902003029 86 265 0.0 3.0 0.00 0.00 0.00 76 1012.8
20260902002519 86 101 1.0 2.0 0.00 0.00 0.00 77 1012.8
20260902002018 86 67 0.0 2.0 0.00 0.00 0.00 77 1012.9
20260902001533 86 93 1.0 2.0 0.00 0.00 0.00 76 1012.6
20260902001011 86 41 0.0 4.0 0.00 0.00 0.00 76 1012.7
20260902000624 87 93 1.0 6.0 0.00 0.00 0.00 76 1012.7
20260902000622 87 229 1.0 6.0 0.00 0.00 0.00 76 1012.6
20260902000619 88 101 1.0 7.0 0.00 0.00 0.00 75 1012.7
20260902000604 91 111 2.0 7.0 0.00 0.00 0.00 66 1013.7